SCP
-0 -0 -0 -0 -0 -0 -0 -0 -0 -0 -0 -0 -0 0 -0 -0 -0 -0 -0 -0 -0 0 0 0 0 0 0 0 0 0 0 0
-0 -0 -0 -0 -0 -0 -0 -0 -0 -0 -0 -0 -0 0 0 0 -0 -0 -0 -0 -0 0 0 0 0 0 0 0 0 0 0 0
-0 -0 -0 -0 -0 -0 -0 -0 -0 -0 -0 -0 0 0 -0 -0 -0 -0 0 0 0 0 0 0 0 0 0 0 0 0 0 0
-0 -0 -0 0 -0 -0 -0 -0 -0 -0 -0 -0 -0 -0 -0 -0 -0 0 0 0 0 0 0 0 0 0 0 0 0 0 -0 -0
0 0 -0 0 0 0 0 -0 -0 -0 -0 -0 -0 -0 -0 -0 0 0 0 0 0 0 0 0 0 0 0 0 0 -0 -0 -0
0 0 0 -0 0 0 0 0 0 -0 0 0 0 0 -0 -0 -0 0 0 0 0 0 0 0 0 0 0 0 -0 -0 -0 0
0 0 0 0 0 0 0 -0 0 0 -0 0 -0 -0 -0 -0 -0 0 0 0 0 0 0 0 0 0 0 0 0 0 0 0
0 0 0 0 0 0 0 0 0 -0 -0 -0 -0 -0 -0 -0 -0 -0 0 0 0 0 0 0 0 0 0 0 0 0 0 0
0 0 0 0 0 0 0 0 0 0 -0 -0 -0 -0 0 -0 -0 -0 0 0 0 0 0 0 0 0 0 0 0 0 0 0
0 0 0 0 0 0 0 0 0 0 0 0 0 -0 0 0 0 0 0 0 0 0 0 0 0 0 0 0 0 0 0 0
0 0 0 0 0 0 0 0 0 0 0 0 0 0 0 0 0 0 0 0 0 0 0 0 0 0 0 0 0 0 0 0
0 0 0 0 0 0 0 0 0 0 0 0 0 0 0 0 0 0 0 0 0 0 0 0 0 0 0 0 0 0 0 0
0 0 0 0 0 0 0 0 0 0 0 0 0 0 0 0 0 0 0 0 0 0 0 0 0 0 0 0 0 0 0 0
0 0 0 0 0 0 0 0 0 0 0 0 0 0 0 0 1 1 1 1 1 1 0 0 0 0 0 0 0 0 0 1
0 0 0 1 0 1 1 1 1 1 1 1 1 1 1 1 1 1 1 1 1 0 0 0 0 0 0 0 0 0 0 1
0 0 0 0 -0 2 2 2 2 1 1 1 1 1 1 1 1 1 1 1 1 1 0 0 0 0 0 0 0 0 0 0
0 0 -0 0 -0 1 1 1 1 1 1 1 1 1 0 1 1 1 1 1 1 1 1 0 0 0 0 0 0 0 0 0
0 0 0 0 -0 1 2 1 2 1 1 1 1 1 1 1 1 1 1 1 0 0 0 0 0 0 0 0 0 0 0 0
0 0 -0 -0 0 0 1 1 1 1 1 1 2 1 1 1 1 1 0 0 0 0 0 0 0 0 0 0 0 0 0 1
Wind_Speed_500mb
72 69 63 60 61 55 49 44 40 38 39 38 37 35 33 30 27 26 25 23 23 22 19 15 14 13 14 15 15 16 15 11
71 65 62 61 62 57 51 46 40 37 35 37 35 33 30 26 24 22 21 19 18 17 16 14 13 12 10 11 11 11 16 9
71 65 62 61 60 56 51 46 41 35 33 33 33 31 29 25 22 20 17 16 16 15 15 15 13 12 12 10 10 12 13 14
65 64 64 63 59 55 51 47 41 36 33 32 33 32 29 25 21 19 17 15 14 13 14 14 14 13 13 13 13 14 16 18
67 63 66 66 63 59 54 48 43 38 33 31 33 34 32 27 22 19 16 13 12 11 11 11 12 11 11 12 11 13 12 12
61 62 64 66 64 60 56 51 46 43 39 35 36 35 32 27 22 18 14 12 11 11 11 12 13 13 13 11 12 13 13 7
62 59 59 61 62 61 59 56 51 46 41 37 35 34 32 28 23 18 16 13 12 12 13 15 17 19 18 16 16 16 20 17
60 61 59 57 57 57 55 51 49 43 38 35 34 33 32 30 27 24 20 15 13 14 17 21 22 23 21 23 20 20 24 27
66 64 62 59 57 53 49 47 42 39 36 34 32 32 32 30 28 25 19 9 11 16 19 23 23 24 26 21 22 23 28 30
63 66 65 61 57 52 48 44 39 35 31 26 25 25 27 28 27 26 21 12 14 20 23 23 24 22 25 30 30 34 37 36
55 63 61 57 52 46 40 33 31 27 23 20 17 14 11 15 24 24 16 17 19 28 33 32 29 33 33 35 39 42 45 44
58 55 59 53 46 43 34 20 19 24 19 16 10 5 5 4 5 15 23 24 21 30 31 39 37 41 43 39 46 47 50 57
63 59 53 50 45 46 39 32 28 23 18 13 14 12 10 12 14 16 20 26 28 29 33 33 32 31 38 44 52 52 57 54
47 59 60 57 49 46 42 37 33 27 22 19 21 19 19 19 20 25 26 24 28 35 40 38 36 33 42 48 50 50 50 54
29 29 54 55 53 48 42 40 41 42 36 29 25 27 17 19 26 29 31 33 39 33 32 32 36 36 44 53 58 54 59 64
61 27 28 41 42 49 52 53 53 46 43 39 31 23 22 24 29 34 36 35 30 31 28 32 36 44 54 55 57 57 60 69
52 50 88 61 54 49 44 28 34 40 35 30 31 21 14 15 20 22 20 21 25 24 29 36 43 40 45 51 51 55 51 78
44 27 73 32 32 38 34 28 22 18 21 26 26 24 25 23 27 26 27 27 23 24 39 37 41 40 48 51 51 35 21 15
63 36 56 67 45 45 36 33 28 29 15 15 11 13 17 17 21 27 25 31 29 36 36 37 43 41 32 33 42 28 25 34
Wind_Direction_500mb
165 166 167 168 167 167 162 157 151 145 146 148 146 144 143 143 142 143 144 150 154 159 165 166 165 158 153 144 145 149 146 140
164 166 166 169 169 170 166 163 156 149 149 154 154 149 147 145 145 149 151 159 168 173 181 186 190 188 180 176 176 181 188 195
165 166 166 168 171 171 171 168 161 156 153 158 160 159 153 151 153 154 158 170 182 189 199 209 214 214 221 225 230 229 223 229
166 166 165 167 171 174 176 173 168 165 163 164 167 167 164 163 164 164 171 180 190 201 212 223 231 237 244 248 253 258 256 255
166 169 167 169 172 176 179 177 176 174 173 172 175 178 177 175 175 179 186 194 202 215 229 241 248 250 256 264 266 264 265 277
169 171 172 172 174 178 180 180 182 183 182 181 183 186 187 188 189 195 201 214 225 239 251 261 268 273 270 271 268 259 259 299
173 174 176 176 177 179 183 185 187 189 187 186 188 190 194 198 202 208 218 232 240 259 273 278 280 279 284 286 275 271 273 274
179 178 178 179 180 183 186 187 189 190 190 190 192 195 200 206 212 218 222 238 268 288 300 300 298 296 292 287 285 268 284 283
188 185 180 182 183 183 186 189 189 190 191 195 196 201 207 213 219 227 221 225 289 306 320 322 311 305 295 291 292 288 293 297
187 189 186 185 187 185 186 186 187 187 190 192 203 210 217 224 228 235 247 246 299 301 297 303 300 311 318 322 305 297 302 299
182 191 193 191 190 187 184 188 189 190 174 179 184 192 218 239 246 244 267 276 289 300 294 293 297 294 309 298 299 293 293 296
190 184 187 193 195 188 174 175 188 171 174 181 184 182 239 282 310 264 264 274 278 282 291 284 292 292 294 302 296 301 295 294
193 187 181 186 189 194 184 188 183 188 216 212 222 240 275 284 278 264 279 293 288 282 281 283 284 286 292 295 297 301 297 296
197 200 191 190 187 190 187 189 196 195 197 215 233 238 259 273 261 264 283 296 295 287 284 278 287 291 295 284 286 290 291 291
177 196 211 201 194 197 201 194 199 202 209 210 226 244 249 254 255 258 274 288 300 294 283 279 280 290 288 288 292 291 294 284
194 29 228 222 212 208 207 210 214 216 217 228 238 253 268 282 284 286 291 289 292 290 292 284 279 272 284 289 288 287 304 296
212 244 228 264 239 203 212 210 227 234 242 240 245 257 274 300 296 284 279 283 283 294 295 288 295 290 283 287 300 293 316 311
169 163 216 220 235 230 223 207 197 222 239 229 236 238 255 279 279 277 274 272 280 286 304 297 293 294 289 291 291 304 298 288
188 206 166 199 207 224 231 220 218 210 208 178 175 218 241 271 264 257 274 289 303 278 289 297 297 294 294 303 304 339 325 318
Wind_Speed_850mb
72 69 63 60 61 55 49 44 40 38 39 38 37 35 33 30 27 26 25 23 23 22 19 15 14 13 14 15 15 16 15 11
71 65 62 61 62 57 51 46 40 37 35 37 35 33 30 26 24 22 21 19 18 17 16 14 13 12 10 11 11 11 16 9
71 65 62 61 60 56 51 46 41 35 33 33 33 31 29 25 22 20 17 16 16 15 15 15 13 12 12 10 10 12 13 14
65 64 64 63 59 55 51 47 41 36 33 32 33 32 29 25 21 19 17 15 14 13 14 14 14 13 13 13 13 14 16 18
67 63 66 66 63 59 54 48 43 38 33 31 33 34 32 27 22 19 16 13 12 11 11 11 12 11 11 12 11 13 12 12
61 62 64 66 64 60 56 51 46 43 39 35 36 35 32 27 22 18 14 12 11 11 11 12 13 13 13 11 12 13 13 7
62 59 59 61 62 61 59 56 51 46 41 37 35 34 32 28 23 18 16 13 12 12 13 15 17 19 18 16 16 16 20 17
60 61 59 57 57 57 55 51 49 43 38 35 34 33 32 30 27 24 20 15 13 14 17 21 22 23 21 23 20 20 24 27
66 64 62 59 57 53 49 47 42 39 36 34 32 32 32 30 28 25 19 9 11 16 19 23 23 24 26 21 22 23 28 30
63 66 65 61 57 52 48 44 39 35 31 26 25 25 27 28 27 26 21 12 14 20 23 23 24 22 25 30 30 34 37 36
55 63 61 57 52 46 40 33 31 27 23 20 17 14 11 15 24 24 16 17 19 28 33 32 29 33 33 35 39 42 45 44
58 55 59 53 46 43 34 20 19 24 19 16 10 5 5 4 5 15 23 24 21 30 31 39 37 41 43 39 46 47 50 57
63 59 53 50 45 46 39 32 28 23 18 13 14 12 10 12 14 16 20 26 28 29 33 33 32 31 38 44 52 52 57 54
47 59 60 57 49 46 42 37 33 27 22 19 21 19 19 19 20 25 26 24 28 35 40 38 36 33 42 48 50 50 50 54
29 29 54 55 53 48 42 40 41 42 36 29 25 27 17 19 26 29 31 33 39 33 32 32 36 36 44 53 58 54 59 64
61 27 28 41 42 49 52 53 53 46 43 39 31 23 22 24 29 34 36 35 30 31 28 32 36 44 54 55 57 57 60 69
52 50 88 61 54 49 44 28 34 40 35 30 31 21 14 15 20 22 20 21 25 24 29 36 43 40 45 51 51 55 51 78
44 27 73 32 32 38 34 28 22 18 21 26 26 24 25 23 27 26 27 27 23 24 39 37 41 40 48 51 51 35 21 15
63 36 56 67 45 45 36 33 28 29 15 15 11 13 17 17 21 27 25 31 29 36 36 37 43 41 32 33 42 28 25 34
Wind_Direction_850mb
165 166 167 168 167 167 162 157 151 145 146 148 146 144 143 143 142 143 144 150 154 159 165 166 165 158 153 144 145 149 146 140
164 166 166 169 169 170 166 163 156 149 149 154 154 149 147 145 145 149 151 159 168 173 181 186 190 188 180 176 176 181 188 195
165 166 166 168 171 171 171 168 161 156 153 158 160 159 153 151 153 154 158 170 182 189 199 209 214 214 221 225 230 229 223 229
166 166 165 167 171 174 176 173 168 165 163 164 167 167 164 163 164 164 171 180 190 201 212 223 231 237 244 248 253 258 256 255
166 169 167 169 172 176 179 177 176 174 173 172 175 178 177 175 175 179 186 194 202 215 229 241 248 250 256 264 266 264 265 277
169 171 172 172 174 178 180 180 182 183 182 181 183 186 187 188 189 195 201 214 225 239 251 261 268 273 270 271 268 259 259 299
173 174 176 176 177 179 183 185 187 189 187 186 188 190 194 198 202 208 218 232 240 259 273 278 280 279 284 286 275 271 273 274
179 178 178 179 180 183 186 187 189 190 190 190 192 195 200 206 212 218 222 238 268 288 300 300 298 296 292 287 285 268 284 283
188 185 180 182 183 183 186 189 189 190 191 195 196 201 207 213 219 227 221 225 289 306 320 322 311 305 295 291 292 288 293 297
187 189 186 185 187 185 186 186 187 187 190 192 203 210 217 224 228 235 247 246 299 301 297 303 300 311 318 322 305 297 302 299
182 191 193 191 190 187 184 188 189 190 174 179 184 192 218 239 246 244 267 276 289 300 294 293 297 294 309 298 299 293 293 296
190 184 187 193 195 188 174 175 188 171 174 181 184 182 239 282 310 264 264 274 278 282 291 284 292 292 294 302 296 301 295 294
193 187 181 186 189 194 184 188 183 188 216 212 222 240 275 284 278 264 279 293 288 282 281 283 284 286 292 295 297 301 297 296
197 200 191 190 187 190 187 189 196 195 197 215 233 238 259 273 261 264 283 296 295 287 284 278 287 291 295 284 286 290 291 291
177 196 211 201 194 197 201 194 199 202 209 210 226 244 249 254 255 258 274 288 300 294 283 279 280 290 288 288 292 291 294 284
194 29 228 222 212 208 207 210 214 216 217 228 238 253 268 282 284 286 291 289 292 290 292 284 279 272 284 289 288 287 304 296
212 244 228 264 239 203 212 210 227 234 242 240 245 257 274 300 296 284 279 283 283 294 295 288 295 290 283 287 300 293 316 311
169 163 216 220 235 230 223 207 197 222 239 229 236 238 255 279 279 277 274 272 280 286 304 297 293 294 289 291 291 304 298 288
188 206 166 199 207 224 231 220 218 210 208 178 175 218 241 271 264 257 274 289 303 278 289 297 297 294 294 303 304 339 325 318